EW4806 Weather Reports


Display with metric or nautical units.
time (UTC)temp
F
wind
direction
speed
MPH
gust
MPH
rain 1hr
in
rain 24hr
in
rain mn
in
humidity
%
barometer
mb
20260901103234 56 198 0.0 0.0 0.00 0.00 0.00 67 1012.1
20260901101732 56 198 0.0 0.0 0.00 0.00 0.00 65 1011.9
20260901100230 57 198 0.0 0.0 0.00 0.00 0.00 62 1011.9
20260901094728 58 297 0.0 0.0 0.00 0.00 0.00 64 1011.9
20260901094619 58 301 0.0 0.0 0.00 0.00 0.00 63 1011.8
20260901092415 58 301 0.0 0.0 0.00 0.00 0.00 63 1011.9
20260901090221 58 301 0.0 0.0 0.00 0.00 0.00 60 1011.8
20260901084722 59 300 0.0 0.0 0.00 0.00 0.00 57 1011.7
20260901083925 60 301 0.0 0.0 0.00 0.00 0.00 56 1011.6
20260901081718 61 300 0.0 0.0 0.00 0.00 0.00 54 1011.6
20260901080218 62 301 0.0 0.0 0.00 0.00 0.00 53 1011.7
20260901074717 62 340 0.0 0.0 0.00 0.00 0.00 52 1011.7
20260901073215 63 297 0.0 0.0 0.00 0.00 0.00 50 1011.6
20260901071715 63 301 0.0 0.0 0.00 0.00 0.00 49 1011.6
20260901070921 64 330 0.0 0.0 0.00 0.00 0.00 48 1011.5
20260901064713 64 286 0.0 0.0 0.00 0.00 0.00 45 1011.5
20260901063212 65 284 0.0 0.0 0.00 0.00 0.00 42 1011.5
20260901061712 66 287 0.0 0.0 0.00 0.00 0.00 40 1011.5
20260901060212 67 280 0.0 0.0 0.00 0.00 0.00 38 1011.4
20260901054712 67 301 0.0 2.0 0.00 0.00 0.00 37 1011.3
20260901053214 68 250 0.0 8.0 0.00 0.00 0.00 36 1011.4
20260901052412 69 220 0.0 2.0 0.00 0.00 0.00 34 1011.3
20260901050211 69 262 0.0 4.0 0.00 0.00 0.00 33 1011.3
20260901044710 70 181 0.0 6.0 0.00 0.00 0.00 32 1011.2
20260901043210 70 196 0.0 7.0 0.00 0.00 0.00 31 1011.0
20260901041710 71 256 0.0 4.0 0.00 0.00 0.00 31 1010.8
20260901040210 72 274 0.0 2.0 0.00 0.00 0.00 30 1010.4
20260901034709 73 251 0.0 7.0 0.00 0.00 0.00 28 1009.9
20260901033209 74 243 0.0 7.0 0.00 0.00 0.00 26 1009.7
20260901031710 74 277 0.0 2.0 0.00 0.00 0.00 24 1009.4
20260901030208 76 237 1.0 8.0 0.00 0.00 0.00 22 1009.3
20260901024706 77 250 1.0 8.0 0.00 0.00 0.00 17 1009.1
20260901023205 78 187 1.0 11.0 0.00 0.00 0.00 15 1008.8
20260901021705 79 279 1.0 11.0 0.00 0.00 0.00 12 1008.5
20260901021604 81 274 1.0 11.0 0.00 0.00 0.00 10 1008.2
20260901014706 82 171 1.0 5.0 0.00 0.00 0.00 9 1008.1
20260901013208 83 288 1.0 8.0 0.00 0.00 0.00 8 1007.9
20260901011705 84 185 1.0 8.0 0.00 0.00 0.00 7 1007.7
20260901010206 84 233 2.0 11.0 0.00 0.00 0.00 7 1007.6
20260901004706 85 158 3.0 16.0 0.00 0.00 0.00 9 1007.5
20260901004557 85 262 3.0 16.0 0.00 0.00 0.00 12 1007.4
20260901002355 86 285 3.0 15.0 0.00 0.00 0.00 14 1007.2
20260901000206 87 274 1.0 11.0 0.00 0.00 0.00 15 1007.1
20260831235406 86 222 4.0 15.0 0.00 0.00 0.00 15 1007.1
20260831233202 87 247 4.0 15.0 0.00 0.00 0.00 15 1007.1
20260831231659 88 277 3.0 14.0 0.00 0.00 0.00 16 1007.0
20260831230159 88 243 3.0 16.0 0.00 0.00 0.00 17 1007.1
20260831224700 89 260 1.0 14.0 0.00 0.00 0.00 17 1007.0
20260831223159 89 240 3.0 15.0 0.00 0.00 0.00 16 1006.9
20260831221700 89 296 1.0 12.0 0.00 0.00 0.00 16 1007.0
20260831220159 88 224 0.0 2.0 0.00 0.00 0.00 17 1007.1
20260831214700 87 291 0.0 1.0 0.00 0.00 0.00 18 1007.4
20260831213156 87 253 0.0 4.0 0.00 0.00 0.00 18 1007.6
20260831211654 86 333 0.0 1.0 0.00 0.00 0.00 19 1007.8
20260831210153 84 295 0.0 3.0 0.00 0.00 0.00 20 1008.0
20260831204654 84 331 0.0 2.0 0.00 0.00 0.00 21 1008.2
20260831203151 83 321 0.0 0.0 0.00 0.00 0.00 21 1008.4
20260831201652 82 270 0.0 0.0 0.00 0.00 0.00 22 1008.6
20260831200851 81 231 0.0 0.0 0.00 0.00 0.00 22 1008.9
20260831194650 79 290 0.0 0.0 0.00 0.00 0.00 24 1009.1
20260831193149 78 244 0.0 0.0 0.00 0.00 0.00 26 1009.4
20260831191649 76 250 0.0 2.0 0.00 0.00 0.00 26 1009.6
20260831190149 75 4 0.0 3.0 0.00 0.00 0.00 28 1009.8
20260831185344 73 281 0.0 2.0 0.00 0.00 0.00 30 1010.2
20260831183149 72 284 1.0 3.0 0.00 0.00 0.00 30 1010.4
20260831181649 71 243 0.0 1.0 0.00 0.00 0.00 31 1010.7
20260831180841 70 278 0.0 0.0 0.00 0.00 0.00 33 1010.8
20260831174646 68 272 0.0 0.0 0.00 0.00 0.00 36 1011.0
20260831173147 67 283 0.0 1.0 0.00 0.00 0.00 38 1011.2
20260831171645 65 298 0.0 2.0 0.00 0.00 0.00 39 1011.2
20260831170145 65 289 0.0 0.0 0.00 0.00 0.00 42 1011.3
20260831164644 64 252 0.0 1.0 0.00 0.00 0.00 44 1011.5
20260831163143 64 235 0.0 1.0 0.00 0.00 0.00 43 1011.6
20260831161642 62 131 0.0 1.0 0.00 0.00 0.00 48 1011.9
20260831160137 60 135 0.0 1.0 0.00 0.00 0.00 51 1012.0
20260831154636 58 164 0.0 0.0 0.00 0.00 0.00 54 1012.0
20260831153137 57 164 0.0 0.0 0.00 0.00 0.00 55 1012.1
20260831151634 55 168 0.0 0.0 0.00 0.00 0.00 61 1012.2
20260831150836 54 183 0.0 0.0 0.00 0.00 0.00 61 1012.2
20260831144634 53 183 0.0 0.0 0.00 0.00 0.00 63 1012.1
20260831143131 52 183 0.0 0.0 0.00 0.00 0.00 66 1012.1
20260831141632 51 183 0.0 0.0 0.00 0.00 0.00 68 1012.0
20260831140131 51 183 0.0 0.0 0.00 0.00 0.00 68 1011.9
20260831134632 51 193 0.0 0.0 0.00 0.00 0.00 67 1011.8
20260831133131 51 189 0.0 0.0 0.00 0.00 0.00 67 1011.8
20260831131632 51 189 0.0 0.0 0.00 0.00 0.00 66 1011.7
20260831130130 52 189 0.0 0.0 0.00 0.00 0.00 65 1011.7
20260831124631 52 189 0.0 0.0 0.00 0.00 0.00 64 1011.8
20260831123820 52 189 0.0 0.0 0.00 0.00 0.00 64 1011.7
20260831121626 52 189 0.0 0.0 0.00 0.00 0.00 63 1011.7
20260831120125 53 189 0.0 0.0 0.00 0.00 0.00 62 1011.7
20260831115319 53 189 0.0 0.0 0.00 0.00 0.00 62 1011.8
20260831113122 54 189 0.0 0.0 0.00 0.00 0.00 60 1011.8
20260831111621 54 189 0.0 0.0 0.00 0.00 0.00 60 1011.9
20260831110118 54 189 0.0 0.0 0.00 0.00 0.00 59 1011.8
20260831104620 55 190 0.0 0.0 0.00 0.00 0.00 58 1011.9